Location: *
(49.0044°N, 9.5056°E)
Time: 06:38:32
(UTC+00:00)

Cosmos 1452 Rocket - Pass Details

Date: 22 September 2019
Orbit: 767 x 775 km, 74.1° (Epoch: 19 October)

Event Time Altitude Azimuth Distance (km) Brightness Sun altitude
Rises 20:00:57 0° 211° (SSW) 3,226 6.7 -25.6°
Reaches altitude 10° 20:03:20 10° 214° (SW) 2,303 6.0 -26.0°
Maximum altitude 20:08:31 65° 296° (WNW) 847 3.8 -26.7°
Drops below altitude 10° 20:13:46 10° 19° (NNE) 2,319 6.2 -27.4°
Sets 20:16:10 0° 22° (NNE) 3,251 6.9 -27.7°
